Weather reports worldwide

Advertisment
Lugo/Rozas, Spain (8008): temperature & dewpoint: 11.06.2019 20:00:00 - 17.06.2019 20:00:00 (CEST)Lugo/Rozas, Spain (8008): wind speed: 11.06.2019 20:00:00 - 17.06.2019 20:00:00 (CEST)Lugo/Rozas, Spain (8008): wind direction: 11.06.2019 20:00:00 - 17.06.2019 20:00:00 (CEST)Lugo/Rozas, Spain (8008): reduced air pressure: 11.06.2019 20:00:00 - 17.06.2019 20:00:00 (CEST)Lugo/Rozas, Spain (8008): visibility: 11.06.2019 20:00:00 - 17.06.2019 20:00:00 (CEST)Lugo/Rozas, Spain (8008): precipitation: 11.06.2019 20:00:00 - 17.06.2019 20:00:00 (CEST)
Date & Time tt [°C] td [°C] ff [km/h] ff [kn] dd ppp [hPa] vv [km] rr [mm]
17.06.2019 20:00:00 - - - - - - - -
17.06.2019 19:00:00 21,1 14,5 5 3 NW 1013,3 20 0,0
17.06.2019 18:00:00 20,8 15,3 4 2 NE 1013,3 20 0,0
17.06.2019 17:00:00 20,9 14,8 5 3 W 1014,1 20 -
17.06.2019 16:00:00 20,7 14,3 4 2 N 1014,1 20 0,0
17.06.2019 15:00:00 20,1 14,0 5 3 NNW 1014,6 20 0,0
17.06.2019 14:00:00 20,4 14,1 4 2 NNE 1014,5 20 -
17.06.2019 13:00:00 18,5 13,1 4 2 WNW 1015,3 20 0,0
17.06.2019 12:00:00 15,7 12,3 4 2 NW 1016,3 20 0,0
17.06.2019 11:00:00 14,2 11,7 4 2 S 1016,6 15 -
17.06.2019 10:00:00 13,4 11,8 4 2 SSE 1017,0 9 0,0
17.06.2019 09:00:00 12,7 11,6 4 2 SSE 1017,4 6 0,0
17.06.2019 08:00:00 12,5 11,4 4 2 SSE 1017,5 8 -
17.06.2019 07:00:00 12,6 11,5 4 2 E 1017,6 8 0,0
17.06.2019 06:00:00 12,9 11,5 4 2 E 1017,7 11 0,0
17.06.2019 05:00:00 13,3 11,5 2 1 NNE 1017,8 13 -
17.06.2019 04:00:00 13,1 11,7 2 1 NNE 1018,0 13 0,0
17.06.2019 03:00:00 13,1 11,7 2 1 NE 1018,6 11 0,0
17.06.2019 02:00:00 13,3 11,9 2 1 NE 1018,8 10 -
17.06.2019 01:00:00 13,2 11,6 5 3 NE 1019,1 10 0,0
17.06.2019 00:00:00 13,1 11,5 5 3 NE 1019,6 10 0,0
16.06.2019 23:00:00 13,1 11,5 8 4 ENE 1019,8 9 -
16.06.2019 22:00:00 13,9 11,4 8 4 NE 1019,6 11 0,0
16.06.2019 21:00:00 15,8 12,0 8 4 NE 1018,7 15 0,0
16.06.2019 20:00:00 17,6 12,1 11 6 NE 1018,1 17 -
16.06.2019 19:00:00 19,7 12,7 13 7 ENE 1017,3 19 0,0
16.06.2019 18:00:00 22,8 13,6 9 5 NE 1016,3 20 0,0
16.06.2019 17:00:00 24,7 9,0 5 3 N 1016,0 20 -
16.06.2019 16:00:00 23,7 8,9 9 5 NNW 1016,7 20 0,0
16.06.2019 15:00:00 22,5 9,3 4 2 NW 1017,3 20 0,0
16.06.2019 14:00:00 20,3 11,8 5 3 NW 1018,4 20 -
16.06.2019 13:00:00 18,6 11,9 5 3 N 1019,0 20 0,0
16.06.2019 12:00:00 15,2 11,0 4 2 NNW 1020,2 19 0,0
16.06.2019 11:00:00 11,6 9,8 4 2 SW 1021,4 13 -
16.06.2019 10:00:00 10,0 9,2 2 1 SE 1021,8 6 0,0
16.06.2019 09:00:00 8,6 8,3 4 2 W 1021,9 0,6 0,0
16.06.2019 08:00:00 7,5 7,2 2 1 SSE 1021,9 0,3 -
16.06.2019 07:00:00 7,4 7,0 2 1 W 1022,0 0,3 0,0
16.06.2019 06:00:00 6,8 6,1 2 1 S 1022,2 1,1 0,0
16.06.2019 05:00:00 7,0 6,1 2 1 SSE 1022,6 0,3 -
16.06.2019 04:00:00 7,8 7,4 2 1 SE 1022,6 0,1 0,0
16.06.2019 03:00:00 7,2 6,0 2 1 S 1023,1 11 0,0
16.06.2019 02:00:00 7,7 6,0 2 1 S 1023,4 10 -
16.06.2019 01:00:00 9,0 7,1 2 1 SSE 1023,4 8 0,0
16.06.2019 00:00:00 10,1 7,9 2 1 S 1023,3 8 0,0
15.06.2019 23:00:00 12,1 8,6 2 1 SSE 1022,6 10 -
15.06.2019 22:00:00 14,7 9,3 4 2 NNW 1021,7 14 0,0
15.06.2019 21:00:00 16,8 8,2 4 2 WNW 1021,2 19 0,0
15.06.2019 20:00:00 17,6 7,9 9 5 W 1021,2 20 -
15.06.2019 19:00:00 17,4 9,0 9 5 W 1021,1 20 0,0
15.06.2019 18:00:00 17,6 8,2 9 5 W 1021,2 20 0,0
15.06.2019 17:00:00 16,9 8,1 8 4 W 1021,6 19 -
15.06.2019 16:00:00 17,5 7,8 9 5 WNW 1021,1 20 0,0
15.06.2019 15:00:00 17,9 7,0 13 7 W 1021,1 19 0,0
15.06.2019 14:00:00 17,3 6,5 15 8 WSW 1021,1 20 -
15.06.2019 13:00:00 15,6 6,6 11 6 WSW 1021,5 20 0,0
15.06.2019 12:00:00 15,4 6,4 11 6 WSW 1021,3 20 0,0
15.06.2019 11:00:00 15,3 7,3 15 8 WSW 1021,1 20 -
15.06.2019 10:00:00 13,7 8,1 9 5 SSW 1020,9 20 0,0
15.06.2019 09:00:00 12,6 9,1 8 4 WSW 1020,9 19 0,0
15.06.2019 08:00:00 10,5 8,9 5 3 SW 1021,0 18 -
15.06.2019 07:00:00 10,6 9,0 5 3 SW 1020,2 19 0,0
15.06.2019 06:00:00 10,8 9,1 4 2 SSW 1019,8 19 0,0
15.06.2019 05:00:00 10,9 9,3 5 3 SW 1019,7 19 -
15.06.2019 04:00:00 11,1 9,2 8 4 SW 1019,6 - 0,0
15.06.2019 03:00:00 11,5 8,9 5 3 SW 1019,6 - 0,0
15.06.2019 02:00:00 11,2 8,9 4 2 SW 1019,7 3,8 -
15.06.2019 01:00:00 11,4 9,0 2 1 SW 1019,7 16 0,0
15.06.2019 00:00:00 11,0 8,7 2 1 SSE 1019,4 19 0,0
14.06.2019 23:00:00 12,0 8,8 0 0 N 1018,7 19 -
14.06.2019 22:00:00 13,2 8,9 5 3 NNW 1017,8 20 0,0
14.06.2019 21:00:00 14,3 8,7 5 3 WNW 1017,0 20 0,0
14.06.2019 20:00:00 16,4 8,6 9 5 WNW 1015,9 20 -
14.06.2019 19:00:00 17,3 8,4 9 5 WNW 1014,8 20 0,0
14.06.2019 18:00:00 17,6 5,8 8 4 W 1014,3 18 0,0
14.06.2019 17:00:00 18,1 6,6 8 4 WNW 1013,8 17 -
14.06.2019 16:00:00 18,5 7,0 5 3 WNW 1013,8 14 0,0
14.06.2019 15:00:00 19,1 7,8 11 6 W 1013,5 7 0,0
14.06.2019 14:00:00 18,3 5,8 5 3 WSW 1013,9 25 -
14.06.2019 13:00:00 16,4 7,3 5 3 N 1014,1 17 0,0
14.06.2019 12:00:00 14,3 8,5 4 2 W 1014,6 16 0,0
14.06.2019 11:00:00 10,8 8,6 5 3 NNE 1015,4 20 -
14.06.2019 10:00:00 7,8 7,4 2 1 W 1015,9 0,9 0,0
14.06.2019 09:00:00 6,3 5,9 2 1 E 1015,7 0,1 0,0
14.06.2019 08:00:00 5,2 4,5 4 2 WSW 1015,8 0,3 -
14.06.2019 07:00:00 5,7 5,3 2 1 ESE 1015,3 0,1 0,0
14.06.2019 06:00:00 6,1 5,8 2 1 S 1014,8 0,1 0,0
14.06.2019 05:00:00 5,8 5,5 2 1 SE 1014,9 0,2 -
14.06.2019 04:00:00 5,2 4,5 2 1 S 1015,2 2,7 0,0
14.06.2019 03:00:00 5,2 3,7 2 1 SSW 1015,5 3,8 0,0
14.06.2019 02:00:00 6,4 4,6 4 2 SSE 1015,5 3,6 -
14.06.2019 01:00:00 7,3 5,6 2 1 SSW 1015,7 7 0,0
14.06.2019 00:00:00 8,8 6,4 2 1 WSW 1015,5 7 0,0
13.06.2019 23:00:00 10,5 7,6 4 2 ENE 1014,9 11 -
13.06.2019 22:00:00 11,9 8,6 2 1 NE 1014,2 11 0,0
13.06.2019 21:00:00 13,7 8,3 8 4 ENE 1013,5 18 0,0
13.06.2019 20:00:00 15,1 8,3 5 3 NE 1012,8 14 -
13.06.2019 19:00:00 17,5 7,0 9 5 NNW 1011,8 3,8 0,0
13.06.2019 18:00:00 17,0 7,1 8 4 N 1011,8 8 0,0
13.06.2019 17:00:00 17,3 7,6 5 3 NE 1011,6 12 -
13.06.2019 16:00:00 17,1 4,4 9 5 WSW 1011,7 0,3 0,0
13.06.2019 15:00:00 16,6 6,4 8 4 NW 1011,9 20 0,0
13.06.2019 14:00:00 15,9 7,1 8 4 W 1012,1 25 -
13.06.2019 13:00:00 15,1 6,1 5 3 SSE 1012,4 20 0,0
13.06.2019 12:00:00 13,4 7,8 5 3 NW 1012,9 19 0,0
13.06.2019 11:00:00 11,6 7,7 2 1 NNW 1013,2 20 -
13.06.2019 10:00:00 11,1 7,6 4 2 W 1013,1 17 0,0
13.06.2019 09:00:00 9,6 7,9 2 1 W 1013,3 15 0,0
13.06.2019 08:00:00 8,0 7,4 2 1 SW 1013,6 10 -
13.06.2019 07:00:00 7,2 6,8 4 2 SSE 1013,8 12 0,0
13.06.2019 06:00:00 6,8 5,9 2 1 W 1013,8 12 0,0
13.06.2019 05:00:00 6,4 5,7 2 1 SSE 1014,0 12 -
13.06.2019 04:00:00 6,7 5,8 2 1 S 1014,1 17 0,0
13.06.2019 03:00:00 6,9 5,0 0 0 N 1014,3 13 0,0
13.06.2019 02:00:00 8,7 6,3 2 1 SSE 1014,3 17 -
13.06.2019 01:00:00 9,5 7,3 2 1 NE 1014,7 20 0,0
13.06.2019 00:00:00 9,8 7,4 2 1 NNW 1015,1 20 0,0
12.06.2019 23:00:00 10,4 7,3 2 1 N 1015,2 20 -
12.06.2019 22:00:00 11,2 7,7 4 2 NE 1014,9 20 0,0
12.06.2019 21:00:00 12,6 7,5 8 4 NE 1014,5 20 0,0
12.06.2019 20:00:00 14,2 7,7 13 7 ENE 1014,0 20 -
12.06.2019 19:00:00 15,0 8,5 5 3 NE 1014,2 20 0,0
12.06.2019 18:00:00 17,2 7,0 9 5 NNW 1013,8 19 0,0
12.06.2019 17:00:00 17,2 5,5 8 4 NW 1014,1 20 -
12.06.2019 16:00:00 16,6 4,3 5 3 NNW 1014,3 20 0,0
12.06.2019 15:00:00 15,8 4,5 5 3 NNW 1014,9 20 0,0
12.06.2019 14:00:00 16,4 3,4 8 4 SSE 1015,4 25 -
12.06.2019 13:00:00 15,5 3,3 4 2 NNW 1016,1 6 0,0
12.06.2019 12:00:00 13,7 5,6 4 2 W 1016,8 20 0,0
12.06.2019 11:00:00 11,5 7,0 5 3 WSW 1017,4 20 -
12.06.2019 10:00:00 9,8 7,9 4 2 SW 1017,9 16 0,0
12.06.2019 09:00:00 9,6 7,5 8 4 WSW 1018,0 18 0,0
12.06.2019 08:00:00 8,3 7,2 5 3 SW 1018,2 13 -
12.06.2019 07:00:00 7,0 6,3 5 3 WSW 1018,4 9 0,0
12.06.2019 06:00:00 7,5 6,9 5 3 SW 1018,3 8 0,0
12.06.2019 05:00:00 6,8 6,8 4 2 SW 1019,0 - -
12.06.2019 04:00:00 5,1 4,2 2 1 S 1019,9 4,0 0,0
12.06.2019 03:00:00 5,3 4,3 4 2 SSE 1020,4 3,8 0,0
12.06.2019 02:00:00 6,1 4,4 4 2 SSE 1020,9 4,4 -
12.06.2019 01:00:00 8,0 5,5 2 1 S 1020,8 11 0,0
12.06.2019 00:00:00 10,0 6,7 2 1 WSW 1020,6 13 0,0
11.06.2019 23:00:00 9,9 6,2 2 1 SE 1020,8 13 -
11.06.2019 22:00:00 11,6 5,7 5 3 NNW 1020,2 13 0,0
11.06.2019 21:00:00 13,7 6,3 5 3 N 1020,0 17 0,0
11.06.2019 20:00:00 15,5 6,0 9 5 NNW 1019,6 20 -

tt = temperature
td = dewpoint
ff = wind speed
dd = wind direction
ppp = reduced air pressure
vv = visibility
rr = precipitation

Next stations